User: anonymous   Login
Location: Beaurecueil
(43.5122°N, 5.5450°E)
Time: 18:53:26
(UTC+00:00)
Language:

Cosmos 2034 Rocket - Orbit

View from above orbital plane
View from above orbital plane
View from above satellite
View from above satellite

Ground track
Ground track

The orbit data is extracted from the following two-line orbital elements,

1 20150U 89059B   20330.87639021 +.00000030 +00000-0 +15401-4 0  9991
2 20150 082.9420 241.0646 0029490 013.1210 052.0476 13.75639821573093
Epoch (UTC): 25 November 2020 21:02:00
Eccentricity: 0.0029490
inclination: 82.9420°
perigee height: 957 km
apogee height: 1001 km
right ascension of ascending node: 241.0646°
argument of perigee: 13.1210°
revolutions per day: 13.75639821
mean anomaly at epoch: 52.0476°
orbit number at epoch: 57309

The dashed part of the orbit path shows where the satellite is in the earth's shadow,  

DLR